Das Wetter in  D-61279 Heinzenberg / Taunus





Wetter Minimum- & Maximum-Werte im Oktober 2009

Standort: Heinzenberg / Taunus - Höhe 297 m         8° 24' 1" Ost 50° 21' 51" Nord
(   3-stündige Aktualisierung    letzte Aktualisierung um 20:46 am 31.10.2009  )


Messgrösse

Minimum

Maximum

Durchschnitt

Temperatur West /
Luftfeuchte West
Anklicken für Monats-Diagramm

-3,6 °C

04:47
15.10.2009

47 %

16:17
15.10.2009

22,7 °C

14:50
07.10.2009

99 %

11:53
10.10.2009

Temp

8,6 °C

Feuchte

85 %

Temperatur Ost /
Luftfeuchte Ost
Anklicken für Monats-Diagramm

-3,5 °C

06:27
15.10.2009

--

--
--

22,8 °C

14:50
07.10.2009

--

--
--

8,6 °C

--

Luftdruck Anklicken für Monats-Diagramm

1002,7 hPa

00:27
22.10.2009

1031,7 hPa

09:51
14.10.2009

1018,2 hPa

Taupunkt

-4,7 °C

04:47
15.10.2009

18,0 °C

14:35
07.10.2009

6,1 °C

Windchill
( gefühlte Temperatur )

-8,7 °C

09:48
20.10.2009

20,6 °C

15:30
07.10.2009

6,3 °C

Windgeschwindigkeit /
Windrichtung
Anklicken für Monats-Diagramm

---

52,1 km/h / W

03:41
08.10.2009

8,6 km/h
W

Helligkeit /
Sonnenschein
Anklicken für Monats-Diagramm
Anklicken für Monats-Diagramm

Sonnenschein:

88:38 Stunden

Max: 8:53 Std am
20.10.2009

89 klux

14:04
01.10.2009

18,8 klux

Solarstrahlung Anklicken für Monats-Diagramm

---

611 W/m²

14:04
01.10.2009

140 W/m²

Regenmenge
    Oktober 2009
Anklicken für Monats-Diagramm

Insgesamt 51,4 l/m²

in 51:13 Stunden
an 20 Tagen

19,3 l/m²

15:33
10.10.2009

Gesamtmenge

51,4 l/m²

Regen-Tage
    Oktober 2009
Anklicken für Monats-Diagramm

>   0 mm/Tag

>   2 mm/Tag

>   5 mm/Tag

> 10 mm/Tag

> 20 mm/Tag

20 Tage     
7 Tage     
3 Tage     
  1 Tag     
0 Tage     

Eisige Tage Oktober 2009 / 2008

Tmin ≤ -10°C     

0 Tage

/

0 Tage

Eistage Oktober 2009 / 2008

Tmax <     0°C     

0 Tage

/

0 Tage

Frosttage Oktober 2009 / 2008

Tmin ≤     0°C     

5 Tage

/

  1 Tag

Kalte Tage Oktober 2009 / 2008

Tmax <   10°C     

6 Tage

/

5 Tage

Warme Tage Oktober 2009 / 2008

Tmax ≥   20°C     

2 Tage

/

0 Tage

Sommertage Oktober 2009 / 2008

Tmax ≥   25°C     

0 Tage

/

0 Tage

Heisse Tage Oktober 2009 / 2008

Tmax ≥   30°C     

0 Tage

/

0 Tage


Monatsdiagramm Oktober 2009

Die Kurven zeigen den Durchschnittswert des jeweiligen Tages an


Wetter-Monatsübersicht Oktober 2009
Datum
  Temperatur
   Luftdruck
   Wind
  Regen
   Luftfeuchte
   Helligkeit

Sonnen-
schein

Ø
Temp.

Min.
Temp.

Max.
Temp.

Ø
Luftdruck

Min.
Luftdruck

Max.
Luftdruck

Ø-Geschw.
Haupt-Richtg.

Max.
Wind

Menge /
Dauer

Ø
Feuchte

Min.
Feuchte

Max.
Feuchte

Ø
Helligkeit

Max.
Helligkeit

1.
Oktober
12,6 °C8,6 °C
23:36
16,3 °C
14:09
1014,7 hPa1013,0 hPa
14:14
1018,1 hPa
23:36
8,8 km/h
W
31,3 km/h
12:54  
0,5 l/m²
1:33 Stunden
87 %74 %
12:39
96 %
08:14
15,4 klux89,4 klux
14:04
1:05 Std 
2.
Oktober
9,2 °C4,5 °C
07:26
14,0 °C
13:31
1018,2 hPa1016,5 hPa
16:36
1019,2 hPa
23:52
6,7 km/h
W
29,5 km/h
13:31  
0,2 l/m²
20 Minuten
81 %59 %
13:31
97 %
06:56
24,1 klux88,6 klux
13:21
3:00 Std 
3.
Oktober
10,4 °C4,5 °C
05:57
16,5 °C
14:57
1014,6 hPa1010,2 hPa
18:47
1019,4 hPa
02:17
16,9 km/h
W
45,9 km/h
23:23  
---
75 %56 %
14:37
95 %
08:02
28,8 klux80,6 klux
12:07
5:26 Std 
4.
Oktober
12,3 °C10,8 °C
23:59
14,0 °C
15:03
1012,0 hPa1009,3 hPa
01:08
1016,8 hPa
23:59
26,3 km/h
W
45,0 km/h
09:58  
2,1 l/m²
4:00 Stunden
79 %65 %
02:38
96 %
17:38
8,1 klux30,6 klux
14:58
--- 
5.
Oktober
11,2 °C9,1 °C
07:29
13,6 °C
13:29
1016,0 hPa1012,5 hPa
23:59
1018,0 hPa
07:29
3,8 km/h
O-SO
22,4 km/h
17:44  
9,0 l/m²
8:10 Stunden
95 %86 %
13:14
98 %
08:09
9,6 klux28,8 klux
12:54
--- 
6.
Oktober
15,3 °C12,2 °C
00:04
17,0 °C
22:55
1012,7 hPa1011,1 hPa
05:04
1014,3 hPa
09:59
13,5 km/h
W-SW
31,2 km/h
20:44  
6,8 l/m²
7:00 Stunden
95 %87 %
13:04
98 %
00:09
10,0 klux33,1 klux
10:54
--- 
7.
Oktober
18,8 °C16,0 °C
06:55
22,7 °C
14:50
1012,4 hPa1007,3 hPa
22:41
1014,8 hPa
10:30
13,4 km/h
W-SW
33,0 km/h
23:51  
0,2 l/m²
15 Minuten
84 %66 %
22:41
94 %
01:00
25,9 klux73,3 klux
14:05
3:50 Std 
8.
Oktober
16,1 °C11,6 °C
23:52
20,8 °C
00:46
1012,8 hPa1006,4 hPa
02:41
1020,8 hPa
23:52
17,3 km/h
W
52,1 km/h
03:41  
0,8 l/m²
1:15 Stunden
81 %65 %
00:36
93 %
10:06
19,4 klux69,4 klux
14:06
2:45 Std 
9.
Oktober
10,3 °C4,8 °C
07:27
16,5 °C
16:27
1020,9 hPa1018,0 hPa
22:43
1023,7 hPa
07:37
2,9 km/h
O-NO
14,8 km/h
16:47  
---
79 %52 %
16:22
97 %
09:17
36,0 klux64,1 klux
12:57
8:15 Std 
10.
Oktober
11,0 °C8,6 °C
04:13
15,0 °C
14:03
1013,9 hPa1012,1 hPa
14:03
1017,0 hPa
00:08
6,2 km/h
W
36,4 km/h
15:43  
19,3 l/m²
7:20 Stunden
95 %86 %
01:43
99 %
11:53
11,1 klux66,7 klux
12:58
35 Min 
11.
Oktober
11,0 °C9,8 °C
08:03
14,2 °C
14:43
1013,7 hPa1007,5 hPa
23:44
1016,9 hPa
07:53
20,3 km/h
W
33,9 km/h
22:03  
3,2 l/m²
5:00 Stunden
94 %82 %
14:43
98 %
00:03
13,7 klux63,1 klux
14:33
1:15 Std 
12.
Oktober
8,5 °C6,3 °C
21:29
12,2 °C
17:24
1016,4 hPa1007,5 hPa
00:04
1025,6 hPa
22:09
14,3 km/h
NW
48,7 km/h
00:34  
3,8 l/m²
3:24 Stunden
85 %56 %
17:24
98 %
02:14
17,3 klux74,9 klux
14:34
2:20 Std 
13.
Oktober
6,6 °C2,7 °C
23:56
10,6 °C
16:25
1026,6 hPa1025,1 hPa
16:25
1029,2 hPa
23:56
7,3 km/h
W-NW
29,0 km/h
14:35  
0,6 l/m²
2:44 Stunden
88 %69 %
14:20
96 %
07:34
21,6 klux88,7 klux
13:45
2:21 Std 
14.
Oktober
1,9 °C-2,0 °C
08:46
8,0 °C
16:46
1030,3 hPa1028,5 hPa
16:51
1031,7 hPa
09:51
4,2 km/h
NO
23,0 km/h
12:56  
---
10 Minuten
82 %52 %
17:46
98 %
09:51
27,8 klux73,4 klux
14:01
5:55 Std 
15.
Oktober
1,3 °C-3,6 °C
04:47
8,8 °C
16:12
1028,3 hPa1025,3 hPa
16:12
1031,0 hPa
02:02
5,2 km/h
NW
25,3 km/h
15:57  
---
78 %47 %
16:17
95 %
09:02
25,8 klux80,9 klux
13:02
4:05 Std 
16.
Oktober
5,4 °C0,3 °C
03:33
11,0 °C
15:33
1021,4 hPa1017,0 hPa
17:23
1027,0 hPa
00:08
15,1 km/h
W-NW
43,6 km/h
15:18  
---
2:25 Stunden
86 %68 %
15:33
98 %
12:48
10,8 klux68,7 klux
14:08
55 Min 
17.
Oktober
6,8 °C5,2 °C
23:59
8,9 °C
15:49
1021,0 hPa1019,4 hPa
02:14
1023,7 hPa
23:59
9,8 km/h
N-NW
31,6 km/h
11:39  
0,2 l/m²
2:05 Stunden
79 %67 %
15:59
91 %
04:54
14,2 klux58,5 klux
15:49
1:35 Std 
18.
Oktober
4,2 °C-0,7 °C
23:47
9,8 °C
16:07
1023,7 hPa1022,1 hPa
16:07
1025,2 hPa
09:34
1,9 km/h
W-SW
15,3 km/h
12:59  
---
83 %58 %
16:02
96 %
08:59
23,7 klux82,1 klux
12:39
4:00 Std 
19.
Oktober
2,2 °C-2,7 °C
08:07
10,4 °C
17:13
1021,2 hPa1016,9 hPa
23:17
1024,6 hPa
02:37
3,3 km/h
O-SO
26,2 km/h
16:07  
---
84 %52 %
17:02
95 %
09:03
25,0 klux64,2 klux
12:48
6:20 Std 
20.
Oktober
4,6 °C-0,5 °C
08:37
10,6 °C
17:17
1012,3 hPa1008,8 hPa
18:02
1017,1 hPa
00:02
14,9 km/h
O-SO
34,6 km/h
12:42  
---
77 %57 %
14:28
93 %
08:57
32,7 klux56,6 klux
12:57
8:53 Std 
21.
Oktober
6,7 °C2,8 °C
07:48
11,5 °C
17:08
1007,5 hPa1003,7 hPa
22:33
1010,4 hPa
01:02
7,5 km/h
O
21,0 km/h
20:57  
---
70 %56 %
16:33
82 %
07:42
23,0 klux59,6 klux
13:02
5:07 Std 
22.
Oktober
7,1 °C4,5 °C
23:02
9,6 °C
14:38
1004,5 hPa1002,7 hPa
00:27
1008,2 hPa
23:12
2,9 km/h
SO
16,1 km/h
00:17  
---
76 %63 %
00:02
93 %
23:27
9,5 klux37,7 klux
10:22
31 Min 
23.
Oktober
6,7 °C2,6 °C
08:27
12,1 °C
16:28
1012,6 hPa1008,2 hPa
00:22
1017,3 hPa
23:12
1,0 km/h
W-NW
12,3 km/h
16:32  
---
18 Minuten
91 %77 %
15:42
97 %
08:43
15,0 klux34,8 klux
14:47
5 Min 
24.
Oktober
8,2 °C3,5 °C
07:12
12,0 °C
15:12
1017,3 hPa1014,7 hPa
22:38
1019,7 hPa
08:48
7,0 km/h
SO
26,4 km/h
21:02  
0,5 l/m²
1:29 Stunden
91 %79 %
15:02
99 %
09:42
11,3 klux35,8 klux
12:37
11 Min 
25.
Oktober
11,1 °C5,7 °C
23:47
15,4 °C
15:07
1016,0 hPa1013,6 hPa
05:17
1018,4 hPa
23:47
6,8 km/h
W
24,5 km/h
11:37  
4,4 l/m²
3:10 Stunden
88 %64 %
15:38
99 %
08:02
26,2 klux69,8 klux
12:37
5:14 Std 
26.
Oktober
9,5 °C5,3 °C
04:08
12,7 °C
12:42
1018,9 hPa1017,6 hPa
12:42
1022,0 hPa
23:42
12,7 km/h
W-SW
38,8 km/h
11:33  
---
24 Minuten
88 %74 %
12:47
98 %
04:43
12,7 klux70,4 klux
11:42
1:14 Std 
27.
Oktober
9,7 °C4,7 °C
23:37
11,7 °C
14:07
1023,5 hPa1022,0 hPa
00:02
1025,0 hPa
11:12
5,6 km/h
W
19,0 km/h
00:52  
---
5 Minuten
89 %81 %
14:13
96 %
23:57
6,4 klux15,5 klux
10:43
--- 
28.
Oktober
6,3 °C2,0 °C
06:37
13,2 °C
14:13
1021,8 hPa1019,6 hPa
15:07
1024,0 hPa
04:03
1,8 km/h
SO
10,7 km/h
01:07  
---
92 %78 %
15:12
98 %
05:37
21,4 klux61,3 klux
10:57
3:31 Std 
29.
Oktober
7,0 °C1,8 °C
05:23
12,0 °C
15:57
1023,6 hPa1020,8 hPa
00:02
1027,3 hPa
23:23
0,7 km/h
W-NW
6,3 km/h
12:07  
---
6 Minuten
96 %89 %
16:13
99 %
06:22
12,5 klux45,2 klux
12:17
54 Min 
30.
Oktober
8,5 °C4,9 °C
23:57
13,3 °C
14:12
1027,9 hPa1026,3 hPa
00:37
1028,9 hPa
23:13
3,0 km/h
O-SO
21,6 km/h
11:08  
---
91 %73 %
16:07
99 %
04:33
25,8 klux51,0 klux
13:12
5:51 Std 
31.
Oktober
5,3 °C1,9 °C
23:42
9,2 °C
13:23
1027,3 hPa1025,1 hPa
23:52
1029,2 hPa
07:57
6,1 km/h
O-SO
23,8 km/h
09:48  
---
85 %66 %
13:17
98 %
02:22
19,1 klux50,7 klux
12:38
3:25 Std 



Oktober
2009

Temperatur

  

Luftdruck

  

Wind

  

Regen

  

Luftfeuchte

  

Helligkeit

Sonnen-
schein

Ø

Min

Max

Ø

Min

Max

Ø

Max

Max

Ø

Min

Max

Ø

Max

Max

8,6 °C

-3,6 °C

04:47 Uhr
15.10.2009

22,7 °C

14:50 Uhr
07.10.2009

1018,2 hPa

1002,7 hPa

00:27 Uhr
22.10.2009

1031,7 hPa

09:51 Uhr
14.10.2009

8,6 km/h

W

52,1 km/h

03:41 Uhr
08.10.2009

19,3 l/m²

7:20 Stunden
10.10.2009

85 %

47 %

16:17 Uhr
15.10.2009

99 %

11:53 Uhr
10.10.2009

18,8 klux

89,4 klux

14:04 Uhr
01.10.2009

8:53 Std

am
20.10.2009

Gesamt

Gesamt

51,4 l/m²

20 Tage
51:13 h

88:38 Std


Wetter-Diagramme Oktober 2009     Heinzenberg / Taunus   
TemperaturLuftfeuchte
SolarstrahlungLuftdruck
HelligkeitSonnenschein
RegenmengeRegendauer
Wind-GeschwindigkeitWind-Richtung